ULLI Airport Information

Runway Information
Runway 10L Length 11146 ft width 197 ft
Elevation 59 ft Threshold 0 ft Heading 106
Runway 28R Length 11146 ft Width 197 ft
Elevation 66 ft Threshold 0 ft Heading 286
Runway 10R Length 12402 ft width 197 ft
Elevation 66 ft Threshold 0 ft Heading 106
Runway 28L Length 12402 ft Width 197 ft
Elevation 79 ft Threshold 0 ft Heading 286
Airport Frequencies
Type APP Name PETERBURG Frequency 129.8 MHZ
Type ATIS Name ATIS Frequency 127.3 MHZ
Type GND Name TAXIING Frequency 121.7 MHZ
Type RDR Name KRUG Frequency 120.3 MHZ
Type TWR Name TWR Frequency 118.1 MHZ
Airport Navaids
Type NDB Name Pulkovo Frequency 342 KHZ
Type NDB Name Pulkovo Frequency 525 KHZ
Type NDB Name Pulkovo Frequency 277 KHZ
Type NDB Name Pulkovo Frequency 303 KHZ
Type VOR-DME Name Sankt-Peterburg Frequency 113400 KHZ
Airport Weather Information & NOTAM
ADDS - METARS form results

(1531 UTC 21 April 2018)
 
METAR text: ULLI 211500Z 30009MPS 9999 OVC016 05/02 Q0998 R88/290050 NOSIG
Conditions at: ULLI (ST PETERSBURG , RU) observed 1500 UTC 21 April 2018
Temperature: 5.0°C (41°F)
Dewpoint: 2.0°C (36°F) [RH = 81%]
Pressure (altimeter): 29.47 inches Hg (998.0 mb)
Winds: from the WNW (300 degrees) at 20 MPH (17 knots; 8.8 m/s)
Visibility: 6 or more miles (10+ km)
Ceiling: 1600 feet AGL
Clouds: overcast cloud deck at 1600 feet AGL
Weather: no significant weather observed at this time